TimeEST,TemperatureF,Dew PointF,Humidity,Sea Level PressureIn,VisibilityMPH,Wind Direction,Wind SpeedMPH,Gust SpeedMPH,PrecipitationIn,Events,Conditions,WindDirDegrees,DateUTC
12:54 AM,30.0,15.1,54,30.05,10.0,North,9.2,-,N/A,,Clear,350,2008-11-20 05:54:00
1:54 AM,32.0,14.0,48,30.04,10.0,North,9.2,-,N/A,,Clear,350,2008-11-20 06:54:00
2:54 AM,33.1,16.0,50,30.04,10.0,North,10.4,-,N/A,,Clear,350,2008-11-20 07:54:00
3:54 AM,33.1,18.0,54,30.03,10.0,NNW,10.4,-,N/A,,Clear,340,2008-11-20 08:54:00
4:54 AM,33.1,19.0,56,30.04,10.0,NNW,10.4,-,N/A,,Clear,330,2008-11-20 09:54:00
5:54 AM,33.1,21.0,61,30.05,10.0,NNW,8.1,-,N/A,,Clear,330,2008-11-20 10:54:00
6:54 AM,33.1,21.9,64,30.06,10.0,NNW,5.8,-,N/A,,Clear,330,2008-11-20 11:54:00
7:54 AM,34.0,23.0,64,30.07,10.0,NNW,5.8,-,N/A,,Clear,330,2008-11-20 12:54:00
8:54 AM,39.9,26.1,58,30.07,10.0,WNW,6.9,-,N/A,,Clear,300,2008-11-20 13:54:00
9:54 AM,45.0,28.0,52,30.06,10.0,NNW,8.1,-,N/A,,Clear,340,2008-11-20 14:54:00
10:54 AM,48.0,28.9,48,30.05,10.0,North,10.4,19.6,N/A,,Clear,360,2008-11-20 15:54:00
11:54 AM,50.0,28.9,44,30.03,10.0,North,10.4,-,N/A,,Clear,10,2008-11-20 16:54:00
12:54 PM,52.0,27.0,38,30.00,10.0,NNE,11.5,-,N/A,,Clear,20,2008-11-20 17:54:00
1:54 PM,54.0,24.1,31,29.98,10.0,North,6.9,-,N/A,,Clear,10,2008-11-20 18:54:00
2:54 PM,53.1,21.9,30,29.98,10.0,North,13.8,18.4,N/A,,Clear,350,2008-11-20 19:54:00
3:54 PM,52.0,21.9,31,29.99,10.0,North,11.5,18.4,N/A,,Clear,350,2008-11-20 20:54:00
4:54 PM,48.9,21.9,35,30.00,10.0,North,11.5,-,N/A,,Clear,350,2008-11-20 21:54:00
5:54 PM,45.0,24.1,44,30.01,10.0,NNW,15.0,-,N/A,,Clear,340,2008-11-20 22:54:00
6:54 PM,43.0,25.0,49,30.01,10.0,NNW,18.4,-,N/A,,Clear,340,2008-11-20 23:54:00
7:54 PM,42.1,25.0,51,30.02,10.0,North,16.1,21.9,N/A,,Clear,350,2008-11-21 00:54:00
8:54 PM,39.9,25.0,55,30.02,10.0,North,12.7,21.9,N/A,,Clear,350,2008-11-21 01:54:00
9:54 PM,39.0,25.0,57,30.03,10.0,North,15.0,21.9,N/A,,Clear,350,2008-11-21 02:54:00
10:54 PM,37.0,25.0,62,30.03,10.0,NNW,9.2,18.4,N/A,,Clear,340,2008-11-21 03:54:00
11:54 PM,36.0,25.0,64,30.01,10.0,North,15.0,23.0,N/A,,Mostly Cloudy,350,2008-11-21 04:54:00